Weather History for Liberal, KS

Change the Weather History Date:

Monday, October 29, 2012

  Actual Average Record
Temperature  
Mean Temperature 52 °F -  
Max Temperature 71 °F 67 °F 89 °F (1950)
Min Temperature 33 °F 37 °F 21 °F (1991)
Degree Days  
Heating Degree Days 13    
Growing Degree Days 2 (Base 50)    
Moisture  
Dew Point 28 °F    
Average Humidity 44    
Maximum Humidity 61    
Minimum Humidity 25    
Precipitation  
Precipitation 0.00 in - - ()
Sea Level Pressure  
Sea Level Pressure 30.11 in    
Wind  
Wind Speed 11 mph (SSW)    
Max Wind Speed 18 mph    
Max Gust Speed 23 mph    
Visibility 10 miles    
Events      
Averages and records for this station are not official NWS values.
T = Trace of Precipitation, MM = Missing Value Source: NWS Daily Summary

Daily Weather History Graph

Daily Weather History Graph

Search for Another Location

Airport:

Trip Planner

Search our weather history database for the weather conditions in past years. The results will help you decide how hot, cold, wet, or windy it might be!

Date:

Astronomy

Oct. 29, 2012 Rise Set
Actual Time 8:05 AM CDT 6:48 PM CDT
Civil Twilight 7:38 AM CDT 7:15 PM CDT
Nautical Twilight 7:08 AM CDT 7:46 PM CDT
Astronomical Twilight 6:37 AM CDT 8:16 PM CDT
Moon 6:43 PM CDT (10/29) 7:57 AM CDT (10/29)
Length of Visible Light 11h 37m
Length of Day
10h 43m
Full, 100% of the Moon is Illuminated
Oct 29
Full
Oct 29
Full
Nov 6
Last Quarter
Nov 13
New
Nov 20
First Quarter

Hourly Weather History & Observations

Time (CDT) Temp. Windchill Dew Point Humidity Pressure Visibility Wind Dir Wind Speed Gust Speed Precip Events Conditions
12:15 AM 39.2 °F 32.5 °F 21.2 °F 49% 30.15 in 10.0 mi South 10.4 mph - N/A   Clear
12:35 AM 39.2 °F 33.0 °F 21.2 °F 49% 30.15 in 10.0 mi South 9.2 mph - N/A   Clear
12:55 AM 37.4 °F 30.3 °F 19.4 °F 48% 30.15 in 10.0 mi South 10.4 mph - N/A   Clear
1:15 AM 39.2 °F 32.5 °F 21.2 °F 49% 30.14 in 10.0 mi South 10.4 mph - N/A   Clear
1:35 AM 37.4 °F 30.3 °F 21.2 °F 52% 30.14 in 10.0 mi South 10.4 mph - N/A   Clear
1:55 AM 37.4 °F 30.3 °F 21.2 °F 52% 30.14 in 10.0 mi South 10.4 mph - N/A   Clear
2:15 AM 39.2 °F 32.0 °F 21.2 °F 49% 30.14 in 10.0 mi South 11.5 mph - N/A   Clear
2:35 AM 39.2 °F 32.5 °F 23.0 °F 52% 30.15 in 10.0 mi South 10.4 mph - N/A   Clear
2:55 AM 37.4 °F 30.8 °F 21.2 °F 52% 30.14 in 10.0 mi South 9.2 mph - N/A   Clear
3:15 AM 35.6 °F 29.2 °F 21.2 °F 56% 30.14 in 10.0 mi South 8.1 mph - N/A   Clear
3:35 AM 33.8 °F 26.4 °F 21.2 °F 60% 30.15 in 10.0 mi South 9.2 mph - N/A   Clear
3:55 AM 33.8 °F 25.8 °F 21.2 °F 60% 30.14 in 10.0 mi South 10.4 mph - N/A   Clear
4:15 AM 35.6 °F 27.5 °F 21.2 °F 56% 30.14 in 10.0 mi South 11.5 mph - N/A   Clear
4:35 AM 37.4 °F 29.8 °F 23.0 °F 56% 30.13 in 10.0 mi SSW 11.5 mph - N/A   Clear
4:55 AM 35.6 °F 28.0 °F 23.0 °F 60% 30.13 in 10.0 mi South 10.4 mph - N/A   Clear
5:15 AM 35.6 °F 28.0 °F 21.2 °F 56% 30.14 in 10.0 mi South 10.4 mph - N/A   Clear
6:15 AM 35.6 °F 28.0 °F 23.0 °F 60% 30.14 in 10.0 mi SSW 10.4 mph - N/A   Clear
6:35 AM 37.4 °F 30.8 °F 23.0 °F 56% 30.15 in 10.0 mi SSW 9.2 mph - N/A   Clear
6:55 AM 37.4 °F 29.8 °F 24.8 °F 60% 30.14 in 10.0 mi SW 11.5 mph - N/A   Clear
7:15 AM 37.4 °F 30.8 °F 23.0 °F 56% 30.15 in 10.0 mi SW 9.2 mph - N/A   Clear
7:35 AM 35.6 °F 29.2 °F 23.0 °F 60% 30.15 in 10.0 mi SW 8.1 mph - N/A   Clear
7:55 AM 35.6 °F 29.9 °F 23.0 °F 60% 30.16 in 10.0 mi SW 6.9 mph - N/A   Clear
8:15 AM 33.8 °F 26.4 °F 21.2 °F 60% 30.16 in 10.0 mi SSW 9.2 mph - N/A   Clear
8:35 AM 37.4 °F 30.3 °F 24.8 °F 60% 30.16 in 10.0 mi SSW 10.4 mph - N/A   Clear
8:55 AM 37.4 °F 29.8 °F 24.8 °F 60% 30.16 in 10.0 mi SW 11.5 mph - N/A   Clear
9:35 AM 39.2 °F 32.0 °F 26.6 °F 61% 30.17 in 10.0 mi SW 11.5 mph - N/A   Clear
9:55 AM 44.6 °F 37.8 °F 28.4 °F 53% 30.17 in 10.0 mi SW 15.0 mph - N/A   Clear
10:15 AM 46.4 °F 39.2 °F 30.2 °F 53% 30.18 in 10.0 mi SW 18.4 mph - N/A   Clear
10:35 AM 50.0 °F - 30.2 °F 47% 30.16 in 10.0 mi SW 17.3 mph - N/A   Clear
10:55 AM 51.8 °F - 30.2 °F 44% 30.16 in 10.0 mi SSW 16.1 mph - N/A   Clear
11:15 AM 53.6 °F - 30.2 °F 41% 30.15 in 10.0 mi SW 17.3 mph 23.0 mph N/A   Clear
11:35 AM 55.4 °F - 30.2 °F 38% 30.15 in 10.0 mi SSW 17.3 mph - N/A   Clear
11:55 AM 57.2 °F - 32.0 °F 38% 30.16 in 10.0 mi SW 11.5 mph - N/A   Clear
12:35 PM 62.6 °F - 33.8 °F 34% 30.15 in 10.0 mi SW 12.7 mph 17.3 mph N/A   Clear
12:55 PM 62.6 °F - 33.8 °F 34% 30.14 in 10.0 mi SW 12.7 mph - N/A   Clear
1:15 PM 64.4 °F - 33.8 °F 32% 30.14 in 10.0 mi SW 11.5 mph 16.1 mph N/A   Clear
1:35 PM 64.4 °F - 33.8 °F 32% 30.13 in 10.0 mi SW 12.7 mph 16.1 mph N/A   Clear
1:55 PM 66.2 °F - 33.8 °F 30% 30.12 in 10.0 mi SSW 11.5 mph 16.1 mph N/A   Clear
2:15 PM 68.0 °F - 33.8 °F 28% 30.11 in 10.0 mi SSW 12.7 mph - N/A   Clear
2:35 PM 69.8 °F - 33.8 °F 27% 30.09 in 10.0 mi SSW 9.2 mph - N/A   Clear
3:35 PM 69.8 °F - 33.8 °F 27% 30.08 in 10.0 mi South 13.8 mph - N/A   Clear
3:55 PM 71.6 °F - 33.8 °F 25% 30.07 in 10.0 mi SSW 15.0 mph 19.6 mph N/A   Clear
4:15 PM 71.6 °F - 33.8 °F 25% 30.07 in 10.0 mi SSW 13.8 mph 18.4 mph N/A   Clear
4:35 PM 71.6 °F - 33.8 °F 25% 30.07 in 10.0 mi SSW 13.8 mph - N/A   Clear
4:55 PM 69.8 °F - 32.0 °F 25% 30.07 in 10.0 mi SSW 12.7 mph - N/A   Clear
5:15 PM 69.8 °F - 32.0 °F 25% 30.06 in 10.0 mi SSW 13.8 mph - N/A   Clear
5:35 PM 69.8 °F - 33.8 °F 27% 30.06 in 10.0 mi South 13.8 mph - N/A   Clear
5:55 PM 69.8 °F - 33.8 °F 27% 30.06 in 10.0 mi South 11.5 mph - N/A   Clear
6:15 PM 66.2 °F - 32.0 °F 28% 30.06 in 10.0 mi SSW 10.4 mph - N/A   Clear
6:35 PM 62.6 °F - 30.2 °F 30% 30.06 in 10.0 mi South 8.1 mph - N/A   Clear
6:55 PM 59.0 °F - 30.2 °F 34% 30.06 in 10.0 mi South 8.1 mph - N/A   Clear
7:15 PM 57.2 °F - 30.2 °F 36% 30.06 in 10.0 mi SSW 6.9 mph - N/A   Clear
7:35 PM 55.4 °F - 30.2 °F 38% 30.07 in 10.0 mi SSW 8.1 mph - N/A   Clear
7:55 PM 53.6 °F - 30.2 °F 41% 30.07 in 10.0 mi SSW 9.2 mph - N/A   Clear
8:15 PM 53.6 °F - 30.2 °F 41% 30.06 in 10.0 mi SSW 8.1 mph - N/A   Clear
8:35 PM 51.8 °F - 28.4 °F 41% 30.06 in 10.0 mi SSW 9.2 mph - N/A   Clear
8:55 PM 51.8 °F - 30.2 °F 44% 30.06 in 10.0 mi SSW 10.4 mph - N/A   Clear
9:15 PM 50.0 °F - 30.2 °F 47% 30.06 in 10.0 mi South 11.5 mph - N/A   Clear
9:35 PM 51.8 °F - 30.2 °F 44% 30.06 in 10.0 mi South 11.5 mph - N/A   Clear
9:55 PM 51.8 °F - 30.2 °F 44% 30.06 in 10.0 mi SSW 11.5 mph - N/A   Clear
10:15 PM 53.6 °F - 32.0 °F 44% 30.06 in 10.0 mi SSW 11.5 mph - N/A   Clear
10:35 PM 53.6 °F - 32.0 °F 44% 30.07 in 10.0 mi SW 10.4 mph - N/A   Clear
10:55 PM 51.8 °F - 30.2 °F 44% 30.08 in 10.0 mi SW 9.2 mph - N/A   Clear
11:15 PM 48.2 °F - 28.4 °F 46% 30.08 in 10.0 mi SW 10.4 mph - N/A   Clear
11:35 PM 48.2 °F - 30.2 °F 50% 30.07 in 10.0 mi SW 10.4 mph - N/A   Clear
11:55 PM 50.0 °F - 30.2 °F 47% 30.07 in 10.0 mi SW 9.2 mph - N/A   Clear